Houston, TX

6:33 AM CDT on July 26, 2016 (GMT -0500)
Hobby

Weather History for KHOU - October, 2013

Change the Weather History Date:

Saturday, October 12, 2013

  Actual Average Record
Temperature  
Mean Temperature 80 °F 72 °F  
Max Temperature 88 °F 83 °F 96 °F (1991)
Min Temperature 72 °F 62 °F 42 °F (1977)
Degree Days  
Heating Degree Days 0 1  
Month to date heating degree days 0 1  
Since 1 July heating degree days 0 2  
Cooling Degree Days 15 8  
Month to date cooling degree days 123 111  
Year to date cooling degree days 3044 2936  
Growing Degree Days 29 (Base 50)    
Moisture  
Dew Point 72 °F    
Average Humidity 81    
Maximum Humidity 100    
Minimum Humidity 61    
Precipitation  
Precipitation 0.03 in 0.18 in 3.37 in (1982)
Month to date precipitation 0.36 2.03  
Year to date precipitation 26.65 38.02  
Sea Level Pressure  
Sea Level Pressure 29.99 in    
Wind  
Wind Speed 6 mph (SE)    
Max Wind Speed 26 mph    
Max Gust Speed 30 mph    
Visibility 8 miles    
Events Rain , Thunderstorm    
T = Trace of Precipitation, MM = Missing Value Source: NWS Daily Summary

Daily Weather History Graph

Daily Weather History Graph

Search for Another Location

Airport or City:

Trip Planner

Search our weather history database for the weather conditions in past years. The results will help you decide how hot, cold, wet, or windy it might be!

Date:

Astronomy

Oct. 12, 2013 Rise Set
Actual Time 7:21 AM CDT 6:53 PM CDT
Civil Twilight 6:57 AM CDT 7:17 PM CDT
Nautical Twilight 6:29 AM CDT 7:45 PM CDT
Astronomical Twilight 6:01 AM CDT 8:12 PM CDT
Moon 2:38 PM CDT (10/12) 12:53 AM CDT (10/12)
Length of Visible Light 12h 20m
Length of Day
11h 32m
First Quarter, 59% of the Moon is Illuminated
Oct 12
First Quarter
Oct 18
Full
Oct 26
Last Quarter
Nov 3
New
Nov 9
First Quarter

Hourly Weather History & Observations

Time (CDT) Temp. Heat Index Dew Point Humidity Pressure Visibility Wind Dir Wind Speed Gust Speed Precip Events Conditions
12:34 AM 77.0 °F - 73.4 °F 89% 29.93 in 10.0 mi ESE 4.6 mph - N/A   Mostly Cloudy
12:53 AM 77.0 °F - 73.9 °F 90% 29.94 in 10.0 mi SE 5.8 mph - N/A   Scattered Clouds
1:53 AM 77.0 °F - 73.9 °F 90% 29.94 in 10.0 mi SE 3.5 mph - N/A   Scattered Clouds
2:53 AM 77.0 °F - 75.0 °F 94% 29.94 in 8.0 mi SE 3.5 mph - N/A   Partly Cloudy
3:53 AM 75.9 °F - 75.0 °F 97% 29.94 in 8.0 mi Calm Calm - N/A   Partly Cloudy
4:53 AM 75.9 °F - 73.9 °F 94% 29.95 in 7.0 mi Calm Calm - N/A   Scattered Clouds
5:53 AM 75.9 °F - 73.9 °F 94% 29.96 in 7.0 mi ESE 4.6 mph - N/A   Partly Cloudy
6:53 AM 75.9 °F - 75.0 °F 97% 29.97 in 8.0 mi ESE 4.6 mph - N/A   Partly Cloudy
7:53 AM 77.0 °F - 75.0 °F 94% 30.00 in 10.0 mi Calm Calm - N/A   Scattered Clouds
8:53 AM 79.0 °F - 75.9 °F 90% 30.02 in 10.0 mi SE 5.8 mph - N/A   Mostly Cloudy
9:53 AM 82.0 °F 89.4 °F 75.9 °F 82% 30.04 in 10.0 mi SE 4.6 mph - N/A   Mostly Cloudy
10:53 AM 82.9 °F 90.8 °F 75.9 °F 79% 30.03 in 10.0 mi SE 6.9 mph - N/A   Mostly Cloudy
11:53 AM 87.1 °F 96.3 °F 75.0 °F 67% 30.02 in 10.0 mi South 12.7 mph 16.1 mph N/A   Mostly Cloudy
12:25 PM 87.8 °F 97.6 °F 75.2 °F 66% 30.00 in 10.0 mi SSE 10.4 mph - N/A   Mostly Cloudy
12:53 PM 86.0 °F 95.1 °F 75.0 °F 70% 30.00 in 10.0 mi SSE 5.8 mph - 0.01 in Rain Light Rain
1:27 PM 84.2 °F 92.3 °F 75.2 °F 74% 29.97 in 10.0 mi WNW 4.6 mph - 0.00 in Rain , Thunderstorm Light Thunderstorms and Rain
1:53 PM 78.1 °F - 73.0 °F 84% 29.98 in 10.0 mi NE 17.3 mph - 0.00 in Thunderstorm Thunderstorm
2:05 PM 77.0 °F - 71.6 °F 83% 30.00 in 1.5 mi South 15.0 mph 21.9 mph 0.25 in Rain , Thunderstorm Heavy Thunderstorms and Rain
2:06 PM 75.2 °F - 71.6 °F 89% 30.00 in 1.0 mi South 16.1 mph 21.9 mph 0.35 in Rain , Thunderstorm Heavy Thunderstorms and Rain
2:18 PM 73.4 °F - 71.6 °F 94% 30.00 in 0.1 mi East 10.4 mph 25.3 mph 1.38 in Rain , Thunderstorm Heavy Thunderstorms and Rain
2:41 PM 73.4 °F - 66.2 °F 78% 29.98 in 0.2 mi East 25.3 mph 43.7 mph 1.91 in Rain , Thunderstorm Heavy Thunderstorms and Rain
2:53 PM 72.0 °F - 64.0 °F 76% 29.99 in 1.0 mi East 9.2 mph 26.5 mph 1.94 in Rain Rain
2:59 PM 73.4 °F - 64.4 °F 73% 29.97 in 1.0 mi SE 13.8 mph - 0.02 in Rain , Thunderstorm Thunderstorms and Rain
3:25 PM 71.6 °F - 69.8 °F 94% 29.97 in 3.0 mi South 5.8 mph - 0.20 in Rain , Thunderstorm Light Thunderstorms and Rain
3:37 PM 73.4 °F - 69.8 °F 88% 29.96 in 10.0 mi SW 3.5 mph - 0.21 in Rain Light Rain
3:53 PM 73.9 °F - 71.1 °F 91% 29.95 in 10.0 mi SSW 4.6 mph - 0.21 in   Mostly Cloudy
4:53 PM 75.9 °F - 72.0 °F 87% 29.96 in 10.0 mi Variable 4.6 mph - N/A   Mostly Cloudy
5:53 PM 77.0 °F - 69.8 °F 78% 29.98 in 10.0 mi SSW 4.6 mph - N/A   Mostly Cloudy
6:53 PM 73.9 °F - 68.0 °F 82% 30.01 in 10.0 mi Calm Calm - 0.00 in   Mostly Cloudy
7:53 PM 73.0 °F - 69.1 °F 87% 30.03 in 10.0 mi Calm Calm - N/A   Mostly Cloudy
8:53 PM 73.9 °F - 66.9 °F 79% 30.04 in 10.0 mi North 5.8 mph - N/A   Mostly Cloudy
9:53 PM 75.0 °F - 69.1 °F 82% 30.05 in 10.0 mi NE 5.8 mph - N/A   Mostly Cloudy
10:47 PM 73.4 °F - 71.6 °F 94% 30.05 in 10.0 mi ENE 4.6 mph - N/A   Scattered Clouds
10:48 PM 73.9 °F - 71.1 °F 91% 30.06 in 10.0 mi ENE 4.6 mph - N/A   Scattered Clouds
11:53 PM 75.0 °F - 72.0 °F 90% 30.06 in 10.0 mi East 4.6 mph - N/A   Mostly Cloudy